W8WLC-13 Weather Reports


Display with metric or nautical units.
time (UTC)temp
F
wind
direction
speed
MPH
gust
MPH
rain 1hr
in
rain 24hr
in
rain mn
in
humidity
%
barometer
mb
20220707050102 56 109 0.0 1.0 0.00 0.00 0.00 95 1019.2
20220707045602 56 94 0.0 1.0 0.00 0.00 0.00 95 1019.2
20220707045102 56 94 0.0 1.0 0.00 0.00 0.00 95 1019.2
20220707044602 56 94 0.0 1.0 0.00 0.00 0.00 94 1019.1
20220707044102 57 94 0.0 1.0 0.00 0.00 0.00 94 1019.1
20220707043602 57 94 0.0 1.0 0.00 0.00 0.00 94 1019.2
20220707043102 57 94 0.0 1.0 0.00 0.00 0.00 94 1019.2
20220707042602 57 94 0.0 1.0 0.00 0.00 0.00 94 1019.2
20220707042102 57 74 0.0 1.0 0.00 0.00 0.00 94 1019.2
20220707041602 57 65 0.0 1.0 0.00 0.00 0.00 94 1019.1
20220707041102 57 65 0.0 1.0 0.00 0.00 0.00 93 1019.2
20220707040602 57 65 0.0 1.0 0.00 0.00 0.00 93 1019.1
20220707040102 57 65 0.0 0.0 0.00 0.00 0.00 93 1019.1
20220707035602 58 65 0.0 1.0 0.00 0.00 0.00 93 1019.2
20220707035102 58 65 0.0 1.0 0.00 0.00 0.00 93 1019.3
20220707034602 58 65 0.0 1.0 0.00 0.00 0.00 93 1019.2
20220707034102 58 65 0.0 0.0 0.00 0.00 0.00 93 1019.2
20220707033602 58 65 0.0 0.0 0.00 0.00 0.00 93 1019.2
20220707033103 58 65 0.0 0.0 0.00 0.00 0.00 93 1019.2
20220707032602 58 65 0.0 0.0 0.00 0.00 0.00 93 1019.3
20220707032102 59 65 0.0 0.0 0.00 0.00 0.00 93 1019.2
20220707031602 59 65 0.0 0.0 0.00 0.00 0.00 93 1019.2
20220707031102 59 65 0.0 0.0 0.00 0.00 0.00 93 1019.3
20220707030602 59 65 0.0 0.0 0.00 0.00 0.00 92 1019.2
20220707030102 59 65 0.0 0.0 0.00 0.00 0.00 92 1019.2
20220707025602 59 65 0.0 0.0 0.00 0.00 0.00 92 1019.3
20220707025102 59 65 0.0 0.0 0.00 0.00 0.00 92 1019.4
20220707024602 60 65 0.0 0.0 0.00 0.00 0.00 92 1019.4
20220707024102 60 65 0.0 0.0 0.00 0.00 0.00 91 1019.4
20220707023602 60 65 0.0 0.0 0.00 0.00 0.00 91 1019.4
20220707023102 60 65 0.0 0.0 0.00 0.00 0.00 91 1019.4
20220707022602 60 65 0.0 0.0 0.00 0.00 0.00 91 1019.4
20220707022102 61 65 0.0 0.0 0.00 0.00 0.00 90 1019.3
20220707021602 61 65 0.0 0.0 0.00 0.00 0.00 90 1019.3
20220707021102 61 65 0.0 0.0 0.00 0.00 0.00 89 1019.2
20220707020602 61 65 0.0 0.0 0.00 0.00 0.00 89 1019.2
20220707020102 62 65 0.0 0.0 0.00 0.00 0.00 89 1019.2
20220707015602 62 65 0.0 0.0 0.00 0.00 0.00 88 1019.3
20220707015102 62 65 0.0 0.0 0.00 0.00 0.00 88 1019.2
20220707014602 62 65 0.0 0.0 0.00 0.00 0.00 88 1019.1
20220707014102 63 65 0.0 0.0 0.00 0.00 0.00 87 1019.2
20220707013602 63 65 0.0 0.0 0.00 0.00 0.00 87 1019.2
20220707013102 63 65 0.0 0.0 0.00 0.00 0.00 87 1019.3
20220707012602 63 65 0.0 0.0 0.00 0.00 0.00 86 1019.3
20220707012102 64 65 0.0 0.0 0.00 0.00 0.00 86 1019.1
20220707011602 64 65 0.0 0.0 0.00 0.00 0.00 85 1019.1
20220707011102 64 65 0.0 0.0 0.00 0.00 0.00 85 1019.2
20220707010602 65 65 0.0 0.0 0.00 0.00 0.00 85 1019.1
20220707010102 65 65 0.0 0.0 0.00 0.00 0.00 85 1019.1
20220707005602 65 65 0.0 1.0 0.00 0.00 0.00 84 1018.9
20220707005102 65 65 0.0 1.0 0.00 0.00 0.00 84 1018.9
20220707004603 65 65 0.0 0.0 0.00 0.00 0.00 85 1019.0
20220707004102 65 65 0.0 0.0 0.00 0.00 0.00 84 1018.9
20220707003602 65 65 0.0 1.0 0.00 0.00 0.00 84 1018.9
20220707003102 65 355 0.0 1.0 0.00 0.00 0.00 83 1018.9
20220707002602 65 355 0.0 1.0 0.00 0.00 0.00 83 1018.9
20220707002102 65 355 0.0 2.0 0.00 0.00 0.00 82 1018.9
20220707001602 66 355 0.0 1.0 0.00 0.00 0.00 81 1019.0
20220707001102 66 339 0.0 1.0 0.00 0.00 0.00 81 1019.0
20220707000602 66 14 0.0 1.0 0.00 0.00 0.00 82 1019.0
20220707000102 66 42 0.0 1.0 0.00 0.00 0.00 82 1019.0
20220706235602 65 55 1.0 1.0 0.00 0.00 0.00 83 1019.0
20220706235102 65 41 1.0 2.0 0.00 0.00 0.00 83 1019.1
20220706234602 65 80 0.0 1.0 0.00 0.00 0.00 84 1019.1
20220706234102 65 101 1.0 2.0 0.00 0.00 0.00 84 1019.2
20220706233602 65 51 1.0 2.0 0.00 0.00 0.00 83 1019.0
20220706233102 65 81 1.0 3.0 0.00 0.00 0.00 84 1019.2
20220706232602 64 61 1.0 2.0 0.00 0.00 0.00 85 1019.2
20220706232102 64 88 1.0 3.0 0.00 0.00 0.00 85 1019.3
20220706231602 63 57 2.0 2.0 0.00 0.00 0.00 86 1019.2
20220706231102 63 74 2.0 3.0 0.00 0.00 0.00 85 1019.2
20220706230602 63 80 2.0 5.0 0.00 0.00 0.00 84 1019.2
20220706230102 64 59 2.0 4.0 0.00 0.00 0.00 84 1019.2
20220706225602 64 98 2.0 3.0 0.00 0.00 0.00 85 1019.2
20220706225103 64 78 2.0 3.0 0.00 0.00 0.00 85 1019.2
20220706224602 64 91 2.0 5.0 0.00 0.00 0.00 85 1019.2
20220706224103 64 74 2.0 4.0 0.00 0.00 0.00 85 1019.2
20220706223603 63 57 2.0 4.0 0.00 0.00 0.00 86 1019.2
20220706223103 64 80 2.0 3.0 0.00 0.00 0.00 85 1019.1
20220706222603 64 80 2.0 6.0 0.00 0.00 0.00 86 1019.1
20220706222103 63 89 3.0 3.0 0.00 0.00 0.00 86 1019.2
20220706221603 64 96 3.0 6.0 0.00 0.00 0.00 86 1019.2
20220706221103 64 64 2.0 4.0 0.00 0.00 0.00 87 1019.1
20220706220603 64 88 3.0 4.0 0.00 0.00 0.00 86 1019.1
20220706220103 64 73 3.0 7.0 0.00 0.00 0.00 85 1019.3
20220706215603 64 68 3.0 6.0 0.00 0.00 0.00 85 1019.2
20220706215103 64 82 2.0 7.0 0.00 0.00 0.00 86 1019.3
20220706214603 64 114 3.0 5.0 0.00 0.00 0.00 86 1019.4
20220706214103 64 58 3.0 6.0 0.00 0.00 0.00 86 1019.3
20220706213603 63 78 3.0 10.0 0.00 0.00 0.00 88 1019.3
20220706213103 63 76 3.0 6.0 0.00 0.00 0.00 87 1019.4
20220706212603 63 59 3.0 5.0 0.00 0.00 0.00 88 1019.4
20220706212103 63 71 3.0 6.0 0.00 0.00 0.00 86 1019.3
20220706211603 63 67 3.0 6.0 0.00 0.00 0.00 86 1019.3
20220706211103 64 64 3.0 7.0 0.00 0.00 0.00 85 1019.4
20220706210603 65 51 3.0 5.0 0.00 0.00 0.00 85 1019.4
20220706210103 64 68 3.0 6.0 0.00 0.00 0.00 87 1019.3
20220706205603 64 40 3.0 6.0 0.00 0.00 0.00 85 1019.2
20220706205103 64 75 2.0 5.0 0.00 0.00 0.00 87 1019.4
20220706204603 64 90 2.0 4.0 0.00 0.00 0.00 87 1019.3
20220706204103 64 86 2.0 5.0 0.00 0.00 0.00 88 1019.3
20220706203603 64 96 3.0 5.0 0.00 0.00 0.00 87 1019.5
20220706203103 64 49 3.0 6.0 0.00 0.00 0.00 87 1019.5
20220706202603 64 75 2.0 8.0 0.00 0.00 0.00 89 1019.5
20220706202103 63 78 2.0 6.0 0.00 0.00 0.00 88 1019.6
20220706201603 63 46 3.0 5.0 0.00 0.00 0.00 86 1019.6
20220706201103 63 78 3.0 5.0 0.00 0.00 0.00 86 1019.6
20220706200603 63 88 3.0 6.0 0.00 0.00 0.00 86 1019.5
20220706200103 63 61 3.0 5.0 0.00 0.00 0.00 86 1019.5
20220706195603 63 71 3.0 7.0 0.00 0.00 0.00 85 1019.5
20220706195103 64 43 2.0 5.0 0.00 0.00 0.00 86 1019.5
20220706194603 63 98 2.0 4.0 0.00 0.00 0.00 86 1019.5
20220706194103 63 81 2.0 5.0 0.00 0.00 0.00 86 1019.6
20220706193603 64 55 2.0 4.0 0.00 0.00 0.00 86 1019.6
20220706193103 63 78 2.0 5.0 0.00 0.00 0.00 87 1019.6
20220706192603 63 65 2.0 4.0 0.00 0.00 0.00 87 1019.6
20220706192103 63 39 2.0 4.0 0.00 0.00 0.00 86 1019.7
20220706191603 63 159 2.0 4.0 0.00 0.00 0.00 87 1019.7
20220706191103 63 44 2.0 4.0 0.00 0.00 0.00 86 1019.6
20220706190603 63 78 3.0 6.0 0.00 0.00 0.00 88 1019.6
20220706190103 63 45 3.0 6.0 0.00 0.00 0.00 87 1019.6
20220706185603 63 67 3.0 6.0 0.00 0.00 0.00 87 1019.7
20220706185103 62 82 3.0 5.0 0.00 0.00 0.00 88 1019.7
20220706184603 62 46 3.0 6.0 0.00 0.00 0.00 87 1019.7
20220706184103 62 40 3.0 5.0 0.00 0.00 0.00 87 1019.7
20220706183603 62 63 2.0 5.0 0.00 0.00 0.00 87 1019.7
20220706183103 63 72 2.0 4.0 0.00 0.00 0.00 86 1019.7
20220706182603 63 113 2.0 4.0 0.00 0.00 0.00 86 1019.6
20220706182103 63 101 2.0 4.0 0.00 0.00 0.00 86 1019.6
20220706181603 63 48 1.0 3.0 0.00 0.00 0.00 87 1019.6
20220706181103 63 142 1.0 2.0 0.00 0.00 0.00 87 1019.7
20220706180603 63 73 2.0 3.0 0.00 0.00 0.00 87 1019.7
20220706180103 63 72 2.0 5.0 0.00 0.00 0.00 87 1019.7
20220706175603 63 74 3.0 6.0 0.00 0.00 0.00 87 1019.8
20220706175103 63 71 3.0 7.0 0.00 0.00 0.00 86 1019.6
20220706174603 63 96 3.0 5.0 0.00 0.00 0.00 86 1019.6
20220706174103 63 95 3.0 5.0 0.00 0.00 0.00 86 1019.7
20220706173603 63 53 3.0 6.0 0.00 0.00 0.00 87 1019.7
20220706173103 63 83 3.0 6.0 0.00 0.00 0.00 86 1019.7
20220706172604 63 67 3.0 7.0 0.00 0.00 0.00 86 1019.6
20220706172103 63 48 3.0 6.0 0.00 0.00 0.00 86 1019.6
20220706171603 63 56 3.0 9.0 0.00 0.00 0.00 86 1019.7
20220706171103 63 69 3.0 5.0 0.00 0.00 0.00 88 1019.8
20220706170603 62 73 2.0 4.0 0.00 0.00 0.00 87 1019.6
20220706170103 62 43 2.0 4.0 0.00 0.00 0.00 89 1019.7
20220706165603 62 69 2.0 3.0 0.00 0.00 0.00 88 1019.7
20220706165103 62 64 2.0 3.0 0.00 0.00 0.00 88 1019.7
20220706164603 62 50 2.0 4.0 0.00 0.00 0.00 89 1019.6
20220706164103 62 61 2.0 6.0 0.00 0.00 0.00 88 1019.6
20220706163603 62 70 2.0 5.0 0.00 0.00 0.00 88 1019.7
20220706163103 61 57 2.0 5.0 0.00 0.00 0.00 89 1019.7
20220706162603 61 44 2.0 5.0 0.00 0.00 0.00 89 1019.6
20220706162103 61 111 2.0 3.0 0.00 0.00 0.00 89 1019.5
20220706161603 61 69 2.0 6.0 0.00 0.00 0.00 89 1019.6
20220706161103 61 92 2.0 4.0 0.00 0.00 0.00 90 1019.5
20220706160603 61 57 2.0 3.0 0.00 0.00 0.00 90 1019.6
20220706160103 61 85 2.0 5.0 0.00 0.00 0.00 90 1019.4
20220706155603 61 54 2.0 4.0 0.00 0.00 0.00 90 1019.3
20220706155103 61 79 2.0 4.0 0.00 0.00 0.00 89 1019.3
20220706154604 61 35 1.0 4.0 0.00 0.00 0.00 90 1019.5
20220706154104 61 89 2.0 3.0 0.00 0.00 0.00 90 1019.4
20220706153604 61 51 2.0 5.0 0.00 0.00 0.00 89 1019.2
20220706153104 61 47 2.0 3.0 0.00 0.00 0.00 90 1019.2
20220706152604 61 58 1.0 4.0 0.00 0.00 0.00 90 1019.2
20220706152104 61 85 1.0 3.0 0.00 0.00 0.00 91 1019.1
20220706151604 61 84 2.0 3.0 0.00 0.00 0.00 91 1019.0
20220706151104 61 53 2.0 4.0 0.00 0.00 0.00 90 1019.2
20220706150604 61 85 1.0 3.0 0.00 0.00 0.00 91 1019.2
20220706150104 61 44 1.0 2.0 0.00 0.00 0.00 91 1019.2
20220706145604 61 65 1.0 3.0 0.00 0.00 0.00 90 1019.1
20220706145104 61 60 1.0 2.0 0.00 0.00 0.00 90 1019.1
20220706144604 61 80 1.0 3.0 0.00 0.00 0.00 91 1019.0
20220706144104 61 38 1.0 2.0 0.00 0.00 0.00 91 1018.9
20220706143604 61 47 2.0 2.0 0.00 0.00 0.00 91 1018.9
20220706143104 61 69 2.0 3.0 0.00 0.00 0.00 91 1018.7
20220706142604 61 66 2.0 4.0 0.00 0.00 0.00 90 1018.8
20220706142104 61 90 2.0 2.0 0.00 0.00 0.00 91 1018.6
20220706141604 61 47 2.0 5.0 0.00 0.00 0.00 90 1018.7
20220706141104 61 78 1.0 5.0 0.00 0.00 0.00 90 1018.7
20220706140604 61 66 1.0 3.0 0.00 0.00 0.00 90 1018.7
20220706140104 61 65 1.0 3.0 0.00 0.00 0.00 91 1018.6
20220706135604 61 79 1.0 2.0 0.00 0.00 0.00 91 1018.5
20220706135105 61 84 1.0 4.0 0.00 0.00 0.00 91 1018.5
20220706134605 61 65 1.0 3.0 0.00 0.00 0.00 92 1018.4
20220706134105 61 34 1.0 4.0 0.00 0.00 0.00 91 1018.4
20220706133607 61 68 1.0 3.0 0.00 0.00 0.00 91 1018.5
20220706133107 61 46 1.0 3.0 0.00 0.00 0.00 91 1018.6
20220706132605 61 57 1.0 3.0 0.00 0.00 0.00 92 1018.6
20220706132105 61 66 1.0 3.0 0.00 0.00 0.00 92 1018.5
20220706131605 61 46 1.0 3.0 0.00 0.00 0.00 92 1018.5
20220706131104 61 67 2.0 4.0 0.00 0.00 0.00 92 1018.6
20220706130604 61 53 1.0 3.0 0.00 0.00 0.00 92 1018.6
20220706130104 61 57 1.0 3.0 0.00 0.00 0.00 92 1018.8
20220706125604 61 58 1.0 3.0 0.00 0.00 0.00 92 1018.8
20220706125104 61 84 1.0 5.0 0.00 0.00 0.00 92 1018.8
20220706124605 61 46 1.0 4.0 0.00 0.00 0.00 92 1018.5
20220706124104 61 107 1.0 3.0 0.00 0.00 0.00 92 1018.3
20220706123604 61 48 2.0 3.0 0.00 0.00 0.00 93 1018.3
20220706123104 61 83 2.0 4.0 0.00 0.00 0.00 93 1018.1
20220706122604 61 78 1.0 3.0 0.00 0.00 0.00 93 1018.1
20220706122104 61 74 1.0 3.0 0.00 0.00 0.00 94 1018.2
20220706121604 61 69 1.0 2.0 0.00 0.00 0.00 94 1018.1
20220706121104 61 67 1.0 3.0 0.00 0.00 0.00 94 1018.0
20220706120604 61 49 1.0 4.0 0.00 0.00 0.00 94 1018.0
20220706120104 61 69 1.0 3.0 0.00 0.00 0.00 94 1017.9
20220706115604 61 64 1.0 2.0 0.00 0.00 0.00 95 1017.7
20220706115104 61 55 1.0 3.0 0.00 0.00 0.00 95 1017.7
20220706114604 61 78 1.0 2.0 0.00 0.00 0.00 95 1017.6
20220706114104 61 72 1.0 3.0 0.00 0.00 0.00 95 1017.5
20220706113604 61 70 1.0 2.0 0.00 0.00 0.00 96 1017.6
20220706113104 60 80 1.0 2.0 0.00 0.00 0.00 95 1017.6
20220706112604 60 65 1.0 2.0 0.00 0.00 0.00 95 1017.6
20220706112105 61 77 0.0 3.0 0.00 0.00 0.00 95 1017.5
20220706111604 61 77 0.0 1.0 0.00 0.00 0.00 95 1017.5
20220706111104 61 76 1.0 2.0 0.00 0.00 0.00 94 1017.5
20220706110604 61 76 0.0 3.0 0.00 0.00 0.00 94 1017.4
20220706110104 61 64 0.0 2.0 0.00 0.00 0.00 95 1017.4
20220706105604 61 64 1.0 3.0 0.00 0.00 0.00 95 1017.3
20220706105105 61 88 1.0 1.0 0.00 0.00 0.00 95 1017.1
20220706104604 61 88 0.0 3.0 0.00 0.00 0.00 95 1017.0
20220706104104 61 73 0.0 1.0 0.00 0.00 0.00 95 1017.1
20220706103604 61 73 1.0 3.0 0.00 0.01 0.00 95 1017.0
20220706103104 61 80 1.0 2.0 0.00 0.01 0.00 95 1016.8
20220706102604 61 85 1.0 3.0 0.00 0.01 0.00 95 1016.9
20220706102105 61 63 0.0 2.0 0.00 0.01 0.00 95 1016.6
20220706101605 61 74 0.0 2.0 0.00 0.01 0.00 95 1016.5
20220706101104 61 55 0.0 0.0 0.00 0.01 0.00 95 1016.3
20220706100604 61 55 0.0 0.0 0.00 0.01 0.00 95 1016.4
20220706100104 61 55 0.0 0.0 0.00 0.01 0.00 95 1016.4
20220706095604 61 55 0.0 0.0 0.00 0.01 0.00 95 1016.4
20220706095104 61 55 0.0 0.0 0.00 0.01 0.00 95 1016.4
20220706094604 61 55 0.0 0.0 0.00 0.01 0.00 94 1016.3
20220706094104 61 55 0.0 0.0 0.00 0.01 0.00 94 1016.4
20220706093604 61 55 0.0 0.0 0.00 0.03 0.00 95 1016.3
20220706093104 61 55 0.0 1.0 0.00 0.03 0.00 95 1016.2
20220706092604 62 55 0.0 1.0 0.00 0.03 0.00 95 1016.2
20220706092104 62 55 0.0 1.0 0.00 0.03 0.00 95 1016.1
20220706091604 62 55 0.0 0.0 0.00 0.03 0.00 95 1016.1
20220706091104 62 55 0.0 0.0 0.00 0.03 0.00 95 1016.1
20220706090604 62 55 0.0 0.0 0.00 0.03 0.00 95 1016.1
20220706090104 62 55 0.0 0.0 0.00 0.03 0.00 95 1016.1
20220706085605 62 55 0.0 0.0 0.00 0.03 0.00 95 1015.9
20220706085105 62 55 0.0 1.0 0.00 0.03 0.00 95 1016.0
20220706084605 62 55 0.0 1.0 0.00 0.03 0.00 95 1015.9
20220706084105 62 55 0.0 1.0 0.00 0.03 0.00 95 1015.7
20220706083605 62 55 0.0 1.0 0.00 0.06 0.00 95 1015.8
20220706083105 62 55 0.0 1.0 0.00 0.06 0.00 95 1015.8
20220706082605 62 55 0.0 1.0 0.00 0.06 0.00 95 1015.8
20220706082105 62 55 0.0 1.0 0.00 0.06 0.00 95 1015.8
20220706081605 62 55 0.0 1.0 0.00 0.06 0.00 95 1015.8
20220706081105 62 55 0.0 1.0 0.00 0.06 0.00 95 1015.8
20220706080605 62 55 0.0 1.0 0.00 0.06 0.00 95 1015.8
20220706080105 62 55 0.0 1.0 0.00 0.06 0.00 95 1015.8
20220706075605 62 65 0.0 0.0 0.00 0.06 0.00 95 1015.8
20220706075105 62 65 0.0 1.0 0.00 0.06 0.00 95 1015.7
20220706074605 62 65 0.0 0.0 0.00 0.06 0.00 95 1015.7
20220706074105 62 65 0.0 0.0 0.00 0.06 0.00 95 1015.7
20220706073605 62 65 0.0 0.0 0.00 0.14 0.00 96 1015.7
20220706073105 62 65 0.0 0.0 0.00 0.14 0.00 95 1015.8
20220706072605 62 65 0.0 1.0 0.00 0.14 0.00 95 1015.6
20220706072105 62 65 0.0 3.0 0.00 0.14 0.00 96 1015.4
20220706071605 62 244 1.0 2.0 0.00 0.14 0.00 95 1015.1
20220706071105 61 249 1.0 3.0 0.00 0.14 0.00 95 1015.0
20220706070605 61 246 0.0 2.0 0.00 0.14 0.00 95 1014.9
20220706070105 61 273 0.0 2.0 0.00 0.14 0.00 96 1014.9
20220706065605 61 273 1.0 1.0 0.00 0.14 0.00 96 1014.8
20220706065105 61 273 1.0 2.0 0.00 0.14 0.00 96 1014.7
20220706064605 61 266 1.0 3.0 0.00 0.14 0.00 95 1014.6
20220706064105 61 295 1.0 2.0 0.00 0.14 0.00 95 1014.6
20220706063605 61 319 1.0 2.0 0.00 0.24 0.00 95 1014.6
20220706063105 61 328 1.0 2.0 0.00 0.24 0.00 95 1014.3
20220706062605 61 284 1.0 3.0 0.00 0.24 0.00 95 1014.4
20220706062105 61 341 1.0 3.0 0.00 0.24 0.00 95 1014.4
20220706061605 61 317 2.0 3.0 0.00 0.24 0.00 95 1014.3
20220706061105 61 327 2.0 6.0 0.00 0.24 0.00 94 1014.5
20220706060605 61 298 2.0 4.0 0.00 0.24 0.00 94 1014.3
20220706060105 61 313 2.0 4.0 0.00 0.24 0.00 94 1014.3
20220706055605 62 315 2.0 6.0 0.00 0.24 0.00 94 1014.3
20220706055105 62 355 2.0 4.0 0.00 0.24 0.00 93 1014.4
20220706054605 62 312 2.0 5.0 0.00 0.24 0.00 93 1014.4
20220706054105 62 315 2.0 7.0 0.00 0.24 0.00 93 1014.3
20220706053605 62 286 2.0 4.0 0.00 0.36 0.00 93 1014.2
20220706053105 62 291 2.0 7.0 0.00 0.36 0.00 93 1014.3
20220706052605 62 324 2.0 4.0 0.00 0.36 0.00 93 1014.2
20220706052105 62 336 2.0 6.0 0.00 0.36 0.00 92 1014.1
20220706051605 62 336 2.0 3.0 0.00 0.36 0.00 92 1014.1
20220706051105 63 274 2.0 5.0 0.00 0.36 0.00 92 1014.1
20220706050605 63 290 2.0 4.0 0.00 0.36 0.00 92 1014.3